Regional Weather Roundup
Issued by NWS

Home | Current Version | Previous Version | Text Only | Print | Product List | Glossary On
Versions: 1 2 3 4 5 6 7 8 9 10 11 12 13 14 15 16 17 18 19 20 21 22 23 24 25 26 27 28 29 30 31 32 33 34 35 36 37 38 39 40 41 42 43 44 45 46 47 48 49 50
000
ASCA44 KEWX 312120
RWRMX

LATIN AMERICA AND CARIBBEAN REGIONAL WEATHER ROUNDUP
NATIONAL WEATHER SERVICE AUSTIN/SAN ANTONIO TX
400 PM CDT FRI OCT 31 2014

NOTE: "FAIR" INDICATED FEW OR NO CLOUDS BELOW 12,000 FEET WITH NO
SIGNIFICANT WEATHER AND/OR OBSTRUCTIONS TO VISIBILITY.

BAJA CALIFORNIA

CITY           SKY/WX    TMP DP  RH WIND       PRES   REMARKS
LORETO         PTSUNNY   84  63  48 NE6       29.81F
LA PAZ         MOSUNNY   88  48  25 N9        29.84
MEXICALI       SUNNY     86  57  37 SE8       29.77
S.J. DEL CABO  PTSUNNY   86  68  54 S14       29.82F
TIJUANA        CLOUDY    70  55  60 NW9       29.92F

NORTHWESTERN MEXICO

CITY           SKY/WX    TMP DP  RH WIND       PRES   REMARKS
CULIACAN       PTSUNNY   99  72  41 W6        29.78  HX 107
DURANGO        SUNNY     75  30  19 N15       30.26F
GUAYMAS        PTSUNNY   86  66  51 S12       29.78
HERMOSILLO     CLOUDY    88  57  35 NW6       29.87
CD. JUAREZ     MOSUNNY   77  48  36 MISG      30.16F
LOS MOCHIS     PTSUNNY   93  52  24 NW9       29.81F HX  90
OBREGON        CLOUDY    93  54  26 SW6       29.79  HX  91

NORTHEASTERN MEXICO

CITY           SKY/WX    TMP DP  RH WIND       PRES   REMARKS
CHIHUAHUA      PTSUNNY   75  45  33 E18       30.23
MATAMOROS      PTSUNNY   77  68  73 N17       30.15
MONCLOVA       CLOUDY   N/A N/A N/A N17       30.20F
MONTERREY      PTSUNNY   75  57  53 SW5       30.18F
NUEVO LAREDO   PTSUNNY   79  63  57 NE6       30.21
PIEDRAS NEGRAS MOSUNNY   77  50  38 E12       30.24F
REYNOSA        PTSUNNY   73  63  68 N14       30.14
SALTILLO       MOSUNNY   70  57  64 N23       30.26F
TORREON        MOSUNNY   81  37  21 NE17      30.17F
CD. VICTORIA   PTSUNNY   73  63  68 NW12      30.12

WESTERN MEXICO

CITY           SKY/WX    TMP DP  RH WIND       PRES   REMARKS
AGUASCALIENTES SUNNY     72  32  23 NE12G23   30.24
COLIMA         SUNNY     88  52  29 N7        29.90F
DEL BAJIO      SUNNY     72  37  28 N10       30.27S
GUADALAJARA    SUNNY     79  37  22 E10       30.13
MANZANILLO     MOSUNNY   88  75  66 S6        29.72F HX  97
MAZATLAN       MOSUNNY   90  70  51 SW9       29.76F HX  95
P. VALLARTA    SUNNY     86  77  74 S9        29.77F HX  97
URUAPAN        SUNNY     75  55  50 S9        30.11F
ZACATECAS      MOSUNNY   72  34  25 E12G23    30.29F

CENTRAL MEXICO

CITY           SKY/WX    TMP DP  RH WIND       PRES   REMARKS
CUERNAVACA     SUNNY     81  50  34 CALM      30.06F
MEXICO CITY    PTSUNNY   66  37  34 NE15      30.30F
MORELIA        SUNNY     75  43  31 NE16      30.18
POZA RICA      MOSUNNY   79  75  89 CALM      30.09S
PUEBLA         PTSUNNY   66  43  42 NE12      30.28S
QUERETARO      MOSUNNY   68  41  37 E14       30.30F
S. LUIS POTOSI PTSUNNY   66  39  37 NE15      30.30F
TAMPICO        PTSUNNY   84  63  48 NE7       30.08F
TOLUCA         MOSUNNY   64  36  34 E24       30.33F

SOUTHERN MEXICO

CITY           SKY/WX    TMP DP  RH WIND       PRES   REMARKS
ACAPULCO       PTSUNNY   86  79  79 S7        29.77F HX  99
B. DE HUATULCO CLOUDY    86  77  74 SW7       29.81  HX  97
OAXACA         PTSUNNY   70  54  56 NW13      30.16F
P. ESCONDIDO   CLOUDY    84  75  74 S12       29.96S HX  92
VERACRUZ       PTSUNNY   81  68  65 N17G29    30.00F
ZIHUATANEJO    MOSUNNY   90  77  66 SW12      29.77F HX 102

YUCATAN PENINSULA

CITY           SKY/WX    TMP DP  RH WIND       PRES   REMARKS
CAMPECHE       PTSUNNY   81  72  74 NW12G23   29.91F
CANCUN         MOSUNNY   84  68  58 N8        29.89F
CHETUMAL       MOSUNNY   86  75  70 NW9       29.86F HX  95
CD. DEL CARMEN PTSUNNY   81  72  74 N17       29.92
COZUMEL        MOSUNNY   81  72  74 NE7       29.91S
MERIDA         PTSUNNY   82  70  65 N9        29.94S
MINATITLAN     DRIZZLE   73  70  88 N7        29.96
TAPACHULA      PTSUNNY   86  77  74 CALM      29.79F HX  97
TUX. GUTIERREZ PTSUNNY   82  68  61 NW12      29.88F
VILLAHERMOSA   DRIZZLE   75  73  94 CALM      29.96F HAZE

CENTRAL AMERICA

CITY           SKY/WX    TMP DP  RH WIND       PRES   REMARKS
BELIZE CITY    MOSUNNY   82  73  74 NE9       29.87S
MANAGUA        PTCLDY    88  73  62 SE7       29.71F HX  96

CARIBBEAN

CITY           SKY/WX    TMP DP  RH WIND       PRES   REMARKS
ARUBA          MOSUNNY   86  77  74 NE16      29.74S HX  97
KINGSTON       MOSUNNY   86  75  70 S10       29.80S HX  95
NASSAU         MOSUNNY   82  66  57 W8        29.81S
SAN JUAN       MOSUNNY   84  73  70 SE6       29.86R HX  91
SANTO DOMINGO  MOSUNNY   88  75  66 S7        29.83R HX  97
ST. KITTS      PTCLDY    84  73  70 E6        29.89S HX  91

$$




USA.gov is the U.S. government's official web portal to all federal, state and local government web resources and services.